Tracking 21473 objects as of 27-Sep-2020
HD Live streaming from Space Station
objects crossing your sky now

OBJECT K

Track OBJECT K now!
10-day predictions


NORAD ID: 43728
Int'l Code: 2018-096K
Perigee: 474.8 km
Apogee: 500.5 km
Inclination: 97.4 °
Period: 94.2 minutes
Semi major axis: 6858 km
RCS: Unknown
Launch date: November 29, 2018
Source: (TBD)
Launch site: SRIHARIKOTA (SRI)
aabbcc
Your satellite tracking list
Your tracking list is empty




NASA's NSSDC Master Catalog

Two Line Element Set (TLE):
1 43728U 18096K   20271.53845972  .00002766  00000-0  10223-3 0  9995
2 43728  97.4149 345.3336 0018755 123.0456 354.6899 15.28418304102007
Source of the keplerian elements: AFSPC